Overview Statistics Trail Chart Weather Telemetry Raw packets
 

This is the latest recevied weather packets stored in our database for station/object OE3APM-13. If no packets are shown the sender has not sent any weather packets the latest 10 day(s).

<< 1 2 3 4 5 6 7 >>
Time Temp. Humidity Pressure Rain* Wind** Luminosity Snow
1788602122 19.44° C 70% 1021.5 hPa 0 mm - 216 W/m² -
1788601815 18.89° C 70% 1021.4 hPa 0 mm - 204 W/m² -
1788601510 18.89° C 71% 1021.4 hPa 0 mm - 230 W/m² -
1788601203 18.89° C 70% 1021.5 hPa 0 mm - 155 W/m² -
1788600903 18.89° C 70% 1021.5 hPa 0 mm - 199 W/m² -
1788600598 18.89° C 72% 1021.5 hPa 0 mm - 789 W/m² -
1788600297 18.33° C 75% 1021.6 hPa 0 mm - 858 W/m² -
1788599997 18.33° C 77% 1021.5 hPa 0 mm - 171 W/m² -
1788599693 18.33° C 77% 1021.6 hPa 0 mm - 712 W/m² -
1788599391 18.33° C 77% 1021.6 hPa 0 mm - 705 W/m² -
1788599091 17.78° C 80% 1021.6 hPa 0 mm - 666 W/m² -
1788598792 17.78° C 80% 1021.6 hPa 0 mm - 638 W/m² -
1788598491 17.22° C 85% 1021.5 hPa 0 mm - 642 W/m² -
1788598192 16.67° C 86% 1021.3 hPa 0 mm - 673 W/m² -
1788597885 16.11° C 85% 1021.5 hPa 0 mm - 526 W/m² -
1788597585 16.11° C 85% 1021.4 hPa 0 mm - 526 W/m² -
1788597281 15.56° C 84% 1021.3 hPa 0 mm - 260 W/m² -
1788596981 15.56° C 85% 1021.3 hPa 0 mm - 192 W/m² -
1788596681 15.56° C 85% 1021.2 hPa 0 mm - 243 W/m² -
1788596390 15.56° C 88% 1021.1 hPa 0 mm - 255 W/m² -
1788596080 15° C 88% 1021.1 hPa 0.25 mm - 236 W/m² -
1788595780 15° C 88% 1021.1 hPa 0.25 mm - 239 W/m² -
1788595479 15° C 89% 1021.2 hPa 0.25 mm - 199 W/m² -
1788595174 15° C 89% 1021.1 hPa 0.25 mm - 246 W/m² -
1788594864 14.44° C 90% 1021.1 hPa 0.25 mm - 257 W/m² -

* Rain latest hour (hover to see other rain measurements)
** Current wind speed in m/s (hover to see current wind gust speed)